Regional Weather Roundup
Issued by NWS Jackson, KY

Home | Current Version | Previous Version | Graphics & Text | Print | Product List | Glossary On
Versions: 1 2 3 4 5 6 7 8 9 10 11 12 13 14 15 16 17 18 19 20 21 22 23 24 25 26 27
000
ASUS43 KJKL 191010
RWRJKL

EAST KENTUCKY HOURLY WEATHER ROUNDUP
NATIONAL WEATHER SERVICE JACKSON KY
600 AM EDT SAT MAY 19 2018

NOTE: "FAIR" INDICATES FEW OR NO CLOUDS BELOW 12,000 FEET WITH
NO SIGNIFICANT WEATHER AND/OR OBSTRUCTIONS TO VISIBILITY.

* THESE REPORTS ARE NOT UNDER NWS QUALITY CONTROL AND MAY NOT
  REPORT WEATHER SUCH AS PRECIPITATION AND FOG.

KYZ079-080-083-085-087-088-110-112-115-119-120-191100
...EASTERN KENTUCKY...

CITY           SKY/WX    TMP DP  RH WIND       PRES   REMARKS
JACKSON          N/A     65  63  93 CALM      29.97R
LONDON         MOCLDY    65  63  93 S3        29.96R
SOMERSET*      RAIN      64  64 100 S3        29.96S
MONTICELLO*    CLOUDY    67  65  93 VRB6      29.96S
WILLIAMSBURG*    N/A     66  66 100 SE6       29.97R
MIDDLESBORO*   CLOUDY    67  64  89 S6        29.99S
HARLAN APT*    PTSUNNY   67  63  86 CALM      30.01R
PIKE CO APT*     N/A     67  65  91 S5        29.99S
BIG SANDY APT*   N/A     68  64  88 SE8       29.98R
MOREHEAD APT*    N/A     66  64  94 CALM      29.96R
ASHLAND*       MOCLDY    67  65  93 CALM      29.94R
$$

KYZ035-036-041-042-044-050-067-078-099-191100
...CENTRAL KENTUCKY...

CITY           SKY/WX    TMP DP  RH WIND       PRES   REMARKS
MT STERLING*     N/A     64  64 100 S5        29.95S
FLEMING/MASON*   N/A     66  66 100 S6        29.94S
DANVILLE*      MOCLDY    64  63  94 S6        29.94R
LEXINGTON      MOCLDY    67  63  87 S12       29.92R
FRANKFORT      CLOUDY    68  63  84 S6        29.89S
LOUISVILLE     CLOUDY    70  67  90 S8        29.88R
LEBANON*       PTSUNNY   68  66  94 S10       29.91R
GLASGOW*       LGT RAIN  66  65  96 S5        29.91S
BOWLING GREEN  MOCLDY    68  68 100 S5        29.90R
$$

KYZ091>093-OHZ055-061-077-WVZ005-015-034-035-042-191100
...SOUTHERN OHIO/WEST VIRGINIA...

CITY           SKY/WX    TMP DP  RH WIND       PRES   REMARKS
COVINGTON      CLOUDY    65  63  93 S3        29.90R
COLUMBUS       MOCLDY    66  60  81 SE8       29.93R
DAYTON         CLOUDY    66  66 100 SE8       29.92R
WILMINGTON     CLOUDY    65  65 100 SE5       29.92R
HUNTINGTON       N/A     69  62  78 SE5       29.94R
CHARLESTON     LGT RAIN  68  64  87 CALM      29.97R
PINEVILLE*     MOCLDY    64  63  97 MISG      30.09R FOG
BECKLEY        LGT RAIN  63  61  93 SE13      30.07R
BLUEFIELD      CLOUDY    63  60  90 VRB7      30.09S
LOGAN CO APT*    N/A     70  61  73 VRB5G15   30.00R
$$

VAZ002-007-008-TNZ017-027-036-066-071-191100
...SOUTHWEST VIRGINIA/EAST TENNESSEE...

CITY           SKY/WX    TMP DP  RH WIND       PRES   REMARKS
WISE*            N/A     63  63 100 S8        30.07S
JONESVILLE*    CLOUDY    64  64 100 CALM      30.03R
ABINGDON*        N/A     64  64 100 SE3       30.06S
BRISTOL          N/A     62  62 100 N3        30.03R
MORRISTOWN*    CLOUDY    64  64 100 CALM      30.00R FOG
SEVIERVILLE*   CLOUDY    64  64 100 CALM      29.99S FOG
KNOXVILLE      CLOUDY    66  66 100 CALM      29.98R
LAFOLLETTE*    PTSUNNY   66  64  94 S3        30.01R
OAK RIDGE      MOCLDY    66  66 100 CALM      30.00R
CROSSVILLE     CLOUDY    65  63  93 S6        30.00R
NASHVILLE      MOCLDY    67  66  97 S6        29.93R
$$

...KEY TO REMARKS...
VSB - VISIBILITY IN MILES
WCI - WIND CHILL INDEX
HX  - HEAT INDEX

$$




USA.gov is the U.S. government's official web portal to all federal, state and local government web resources and services.